This is the latest recevied weather packets stored in our database for station/object R1CBW-13. If no packets are shown the sender has not sent any weather packets the latest 10 day(s).
| Time | Temp. | Humidity | Pressure | Rain* | Wind** | Luminosity | Snow |
|---|---|---|---|---|---|---|---|
| 1778315131 | 10° C | 31% | 1028.3 hPa | 0 mm | - | - | - |
| 1778315071 | 11.11° C | 29% | 1028.5 hPa | 0 mm | - | - | - |
| 1778314951 | 10.56° C | 30% | 1028.4 hPa | 0 mm | - | - | - |
| 1778314891 | 10.56° C | 31% | 1028.3 hPa | 0 mm | - | - | - |
| 1778314831 | 11.11° C | 30% | 1028.5 hPa | 0 mm | - | - | - |
| 1778314771 | 11.11° C | 31% | 1028.3 hPa | 0 mm | - | - | - |
| 1778314710 | 11.11° C | 31% | 1028.3 hPa | 0 mm | - | - | - |
| 1778314651 | 11.11° C | 31% | 1028.3 hPa | 0 mm | - | - | - |
| 1778314590 | 10.56° C | 31% | 1028.4 hPa | 0 mm | - | - | - |
| 1778314530 | 10.56° C | 33% | 1028.5 hPa | 0 mm | - | - | - |
| 1778314470 | 10.56° C | 33% | 1028.4 hPa | 0 mm | - | - | - |
| 1778314350 | 11.11° C | 33% | 1028.4 hPa | 0 mm | - | - | - |
| 1778314290 | 10° C | 34% | 1028.4 hPa | 0 mm | - | - | - |
| 1778314230 | 10.56° C | 34% | 1028.5 hPa | 0 mm | - | - | - |
| 1778314170 | 10.56° C | 34% | 1028.4 hPa | 0 mm | - | - | - |
| 1778314110 | 10.56° C | 34% | 1028.4 hPa | 0 mm | - | - | - |
| 1778314050 | 10.56° C | 34% | 1028.5 hPa | 0 mm | - | - | - |
| 1778313990 | 11.11° C | 33% | 1028.3 hPa | 0 mm | - | - | - |
| 1778313930 | 11.11° C | 33% | 1028.5 hPa | 0 mm | - | - | - |
| 1778313870 | 10.56° C | 34% | 1028.5 hPa | 0 mm | - | - | - |
| 1778313810 | 11.11° C | 33% | 1028.4 hPa | 0 mm | - | - | - |
| 1778313750 | 11.11° C | 34% | 1028.3 hPa | 0 mm | - | - | - |
| 1778313690 | 11.67° C | 33% | 1028.4 hPa | 0 mm | - | - | - |
| 1778313630 | 11.11° C | 34% | 1028.4 hPa | 0 mm | - | - | - |
| 1778313570 | 11.11° C | 34% | 1028.5 hPa | 0 mm | - | - | - |
* Rain latest hour (hover to see other rain measurements)
** Current wind speed in m/s (hover to see current wind gust speed)